Flag for Canada Weather past 2 weeks in Stonewall, Manitoba, Canada

Now
77 °F

Broken clouds.


Feels Like: 77 °F
Forecast: N/A
Wind: 12 mph from West

Location: Winnipeg Int. Airportman.

Current Time: May 22, 2015 at 5:35:45 PM

Latest Report: May 22, 2015 at 5:00 PM


Visibility: 15 mi

Pressure: 30.07 "Hg

Humidity: 22%

Dew point: 36 °F

Location of StonewallLocation

Historic Weather in Stonewall — Graph

°F

Stonewall temperature yesterday

Maximum temperature yesterday: 66 °F (at 6:00 PM)
Minimum temperature yesterday: 34 °F (at 6:00 AM)
Average temperature yesterday: 53 °F

Past Weeks' High & Low Weather Summary

 TemperatureHumidityPressure
High81 °F (May 22, 3:00 PM)100% (May 14, 8:00 AM)30.46 "Hg (May 14, 8:00 AM)
Low27 °F (May 12, 4:00 AM)18% (May 22, 4:00 PM)29.77 "Hg (May 7, 4:00 PM)
Average46 °F67%30.15 "Hg
* Reported May 7 4:00 PM — May 22 4:00 PM, Stonewall, Weather by CustomWeather, © 2015

Note: Actual official high and low records may vary slightly from our data, if they occured in-between our weather recording intervals... More about our weather records

Advertising

Stonewall weather history for previous 24 hours

 ConditionsComfort  
Time TempWeatherWind HumidityBarometerVisibility
4:00 PM
Fri, May 22
81 °FScattered clouds.10 mph18%30.07 "Hg15 mi
3:00 PM81 °FPassing clouds.10 mph21%30.08 "Hg15 mi
2:00 PM79 °FPassing clouds.10 mph26%30.08 "Hg15 mi
1:00 PM77 °FPassing clouds.13 mph30%30.09 "Hg15 mi
12:00 PM73 °FPassing clouds.14 mph33%30.10 "Hg15 mi
11:00 AM70 °FPassing clouds.12 mph35%30.11 "Hg15 mi
10:00 AM64 °FPassing clouds.9 mph43%30.13 "Hg15 mi
9:00 AM59 °FPassing clouds.12 mph51%30.13 "Hg15 mi
8:00 AM54 °FPassing clouds.9 mph58%30.14 "Hg15 mi
7:00 AM50 °FPassing clouds.8 mph62%30.14 "Hg15 mi
6:00 AM46 °FPassing clouds.6 mph66%30.14 "Hg15 mi
5:00 AM46 °FPassing clouds.8 mph66%30.14 "Hg15 mi
4:00 AM50 °FPassing clouds.12 mph54%30.13 "Hg15 mi
3:00 AM46 °FPassing clouds.7 mph71%30.14 "Hg15 mi
2:00 AM46 °FPassing clouds.7 mph76%30.13 "Hg15 mi
1:00 AM52 °FPassing clouds.7 mph58%30.13 "Hg15 mi
12:00 AM54 °FPassing clouds.5 mph54%30.13 "Hg15 mi
11:00 PM
Thu, May 21
54 °FPassing clouds.5 mph54%30.13 "Hg15 mi
10:00 PM57 °FScattered clouds.6 mph51%30.13 "Hg15 mi
9:00 PM59 °FPartly sunny.5 mph51%30.13 "Hg15 mi
8:00 PM63 °FPartly sunny.7 mph45%30.12 "Hg15 mi
7:00 PM66 °FPartly sunny.9 mph32%30.12 "Hg15 mi
6:00 PM66 °FPartly sunny.No wind37%30.14 "Hg15 mi
5:00 PM64 °FScattered clouds.2 mph34%30.15 "Hg15 mi
Weather by CustomWeather, © 2015

See weather overviewHow to use our weather pages